Regional Weather Roundup
Issued by NWS Austin/San Antonio, TX

Home | Current Version | Previous Version | Text Only | Print | Product List | Glossary On
Versions: 1 2 3 4 5 6 7 8 9 10 11 12 13 14 15 16 17 18 19 20 21 22 23 24 25 26 27 28 29 30 31 32 33 34 35 36 37 38 39 40 41 42 43 44 45 46 47 48 49 50
000
ASUS44 KEWX 200501
RWREWX
SOUTH TEXAS REGIONAL WEATHER ROUNDUP
NATIONAL WEATHER SERVICE AUSTIN/SAN ANTONIO TX
1100 PM CST SUN NOV 19 2017

NOTE: "FAIR" INDICATED FEW OR NO CLOUDS BELOW 12,000 FEET WITH NO
SIGNIFICANT WEATHER AND/OR OBSTRUCTIONS TO VISIBILITY.

* - THESE STATIONS ARE NOT NWS OR FAA STATIONS...AND ARE NOT SUBJECT
    TO NWS AND FAA QUALITY CONTROL.

TXZ171-172-183>190-200600-
TEXAS HILL COUNTRY AND EDWARDS PLATEAU

CITY           SKY/WX    TMP DP  RH WIND       PRES   REMARKS
JUNCTION       CLOUDY    38  29  70 W3        30.22S
*LLANO         CLOUDY    37  34  87 CALM      30.27S
BURNET         CLOUDY    42  29  59 CALM      30.24F
*HORSESHOE BAY CLOUDY    38  32  78 CALM      30.22F
*KERRVILLE     CLOUDY    39  33  80 CALM      30.23S
*FREDERICKSBRG CLOUDY    35  30  82 CALM      30.23S
*ROCKSPRINGS   NOT AVBL
*BOERNE STAGE  MOCLDY    39  34  81 CALM      30.24F
*CASTROVILLE   MOCLDY    47  35  62 CALM      30.24F
HONDO          CLOUDY    44  29  55 NE5       30.22F WCI  42
*UVALDE        CLOUDY    44  35  69 CALM      30.24R
DEL RIO        CLOUDY    49  33  54 SE3       30.20S
LAUGHLIN AFB   MOCLDY    46  34  62 CALM      30.20S
CARRIZO SPRGS  MOCLDY    46  41  81 CALM      30.22S
*EAGLE PASS    CLEAR     46  36  66 SE5       30.22S WCI  44
$$

TXZ173-191>194-202-209-217>225-228-200600-
CENTRAL AND SOUTH CENTRAL TEXAS

CITY           SKY/WX    TMP DP  RH WIND       PRES   REMARKS
GEORGETOWN     CLOUDY    42  31  64 CALM      30.24F
AUSTIN/BERGSTM PTCLDY    39  37  92 CALM      30.23F
AUSTIN/MABRY   CLOUDY    47  34  60 CALM      30.24F
*AUSTIN/EXEC   CLOUDY    46  36  66 CALM      30.24F
*LAGO VISTA    PTCLDY    50  29  44 SE5       30.23F WCI  48
SAN MARCOS     PTCLDY    41  33  73 NW6       30.25S WCI  37
NEW BRAUNFELS  MOCLDY    43  33  68 W5        30.23S WCI  40
RANDOLPH AFB   MOCLDY    46  37  69 N5        30.23F WCI  44
PT SAN ANTONIO MOCLDY    47  35  62 CALM      30.21F
SAN ANTONIO    MOCLDY    49  36  61 N3        30.23F
STINSON FIELD  PTCLDY    51  34  52 CALM      30.21F
*LA GRANGE     CLOUDY    45  40  82 CALM      30.22S
*GIDDINGS      CLOUDY    42  38  85 CALM      30.24F
*GONZALES      CLOUDY    47  36  64 CALM      30.23F
$$

TXZ163>164-176>182-195>201-210>213-226-227-235-200600-
SOUTHEAST TEXAS

CITY           SKY/WX    TMP DP  RH WIND       PRES   REMARKS
COLLEGE STN    CLOUDY    51  33  50 NE6       30.24F
*BRYAN         CLOUDY    45  36  69 CALM      30.25F
*CALDWELL      CLOUDY    45  36  71 CALM      30.25S
*CROCKETT        N/A    N/A N/A N/A MISG        N/A
*BRENHAM       CLOUDY    44  40  86 CALM      30.25S
HUNTSVILLE     PTCLDY    43  38  82 CALM      30.24F
CONROE         CLOUDY    39  39 100 N3        30.24F
HOUSTON BUSH   CLOUDY    48  38  68 CALM      30.24F
HOUSTON HOBBY  MOCLDY    53  37  54 NE5       30.24S
*HOUSTON SW AP MOCLDY    46  42  87 CALM      30.25F
PEARLAND       MOCLDY    51  42  71 CALM      30.26S
HOUSTON HOOKS  MOCLDY    43  42  97 CALM      30.24F
ELLINGTON FLD  MOCLDY    55  36  47 CALM      30.26S
SUGAR LAND     MOCLDY    47  41  80 CALM      30.24S
*HOUSTON EXEC  MOCLDY    48  39  71 CALM      30.26S
*CLEVELAND MUN MOCLDY    40  38  95 CALM      30.26S
*WHARTON       PTCLDY    49  38  66 CALM      30.25F
*COLUMBUS      FAIR      44  39  81 CALM      30.25S
*EAGLE LAKE    CLOUDY    47  39  73 CALM      30.24S
$$

TXZ214>216-236>238-200600-
THE UPPER TEXAS COAST

CITY           SKY/WX    TMP DP  RH WIND       PRES   REMARKS
*ORANGE        PTCLDY    41  40  98 CALM      30.27S
PORT ARTHUR    PTCLDY    45  40  82 CALM      30.25S
GALVESTON      PTCLDY    59  38  45 NE9       30.25F
ANGLETON       CLOUDY    48  40  73 CALM      30.24F
*BAY CITY      PTCLDY    48  40  72 CALM      30.24S
PALACIOS       PTCLDY    49  41  74 NE6       30.24S WCI  46
$$

TXZ229>234-239>247-200600-
TEXAS COASTAL BEND AND RIO GRANDE PLAINS

CITY           SKY/WX    TMP DP  RH WIND       PRES   REMARKS
VICTORIA       PTCLDY    49  40  71 N6        30.25R WCI  46
*BEEVILLE      PTCLDY    53  42  66 E5        30.24F
ROCKPORT       PTCLDY    55  40  56 N5        30.24S
*PORT ARANSAS  NOT AVBL
*PORT LAVACA   PTCLDY    51  40  65 N3        30.25R
*INGLESIDE     NOT AVBL
CORPUS CHRISTI CLOUDY    50  32  50 S5        30.23F WCI  48
CORPUS NAS     PTCLDY    58  39  49 CALM      30.23F
*ROBSTOWN      PTCLDY    52  36  54 CALM      30.25F
ALICE          CLOUDY    51  38  60 W5        30.24F
KINGSVILLE NAS PTCLDY    51  41  68 W3        30.24F
COTULLA        MOCLDY    54  32  43 SE3       30.23S
*FAITH RANCH   PTCLDY    52  39  62 E5        30.22S
LAREDO         MOCLDY    54  35  48 E5        30.22F
$$

TXZ248>255-200600-
DEEP SOUTH TEXAS

CITY           SKY/WX    TMP DP  RH WIND       PRES   REMARKS
BROWNSVILLE    PTCLDY    58  46  64 NW7       30.23F
PORT ISABEL    MOCLDY    58  46  64 NW7       30.22F
*SOUTH PADRE   NOT AVBL
HARLINGEN      CLEAR     52  44  74 N6        30.23F
*HEBBRONVILLE  CLEAR     48  36  62 S5        30.23F WCI  46
MCALLEN        CLEAR     59  44  57 E6        30.24F
*WESLACO       CLEAR     53  43  69 CALM      30.23F
FALFURRIAS     NOT AVBL
EDINBURG       CLEAR     52  43  71 CALM      30.25F
*ZAPATA        CLEAR     50  33  52 CALM      30.22F
$$

TXZ213>215-236>238-242>244-246-247-251-254-255-200600-
CMAN STATIONS

STATION/POSITION TIME  TEMP    WIND        PRES    WAVE
                       AIR SEA DIR/SP/G            HT/PER
                 (UTC) (F)     (DEG/KT/KT) (MB)    (FT/S)
SABINE PASS      0430   54 70   40/  6/  7 1026.0
SEA RIM ST PARK  0400   54     340/  3/  3 1024.9
NORTH JETTY/GLS  0430      67   30/ 13/ 15 1023.5
EAGLE POINT      0430   60 65   80/ 11/ 12 1024.2
MORGANS POINT    0430   58 69   40/  6/  7 1024.0
PORT O`CONNOR    0430   62 68   40/ 12/ 14 1023.3
PORT ARANSAS     0400   62 72  350/  7/  8 1023.9
MALAQUITE BEACH  0430   62 71  330/  4/  5 1023.4
BAFFIN BAY       0430   60 67  360/  6/  7 1024.1
PORT ISABEL      0430   59 73  300/  8/ 11 1023.3
$$



USA.gov is the U.S. government's official web portal to all federal, state and local government web resources and services.